• In Moldova, Republic
  • List of Countries
  • For 7 days
  • Water Temperature
  • Satellite Maps
  • Weather Map
  • Weather Widgets
  • user-avatar
    Login

    Hourly Weather Stepanakert

    Today, 26 February, Sunday

    Time Temperature Precipitation Wind Pressure Humidity
    00:00 +3°C° 0 mm 3 mps 694 mmHg 67%
    01:00 +3°C° 0 mm 3 mps 694 mmHg 66%
    02:00 +2°C° 0 mm 3 mps 693 mmHg 66%
    03:00 +2°C° 0 mm 3 mps 693 mmHg 69%
    04:00 +2°C° 0 mm 3 mps 693 mmHg 69%
    05:00 +2°C° 0 mm 3 mps 692 mmHg 69%
    06:00 +2°C° 0 mm 3 mps 692 mmHg 70%
    07:00 +3°C° 0 mm 3 mps 693 mmHg 68%
    08:00 +6°C° 0 mm 2 mps 693 mmHg 66%
    09:00 +8°C° 0 mm 2 mps 693 mmHg 65%
    10:00 +10°C° 0 mm 2 mps 693 mmHg 61%
    11:00 +12°C° 0 mm 2 mps 694 mmHg 57%
    12:00 +13°C° 0 mm 1 mps 694 mmHg 53%
    13:00 +13°C° 0 mm 1 mps 694 mmHg 55%
    14:00 +13°C° 0 mm 2 mps 694 mmHg 56%
    15:00 +13°C° 0 mm 2 mps 693 mmHg 58%
    16:00 +11°C° 0 mm 1 mps 693 mmHg 63%
    17:00 +8°C° 0 mm 1 mps 694 mmHg 68%
    18:00 +6°C° 0 mm 1 mps 694 mmHg 73%
    19:00 +5°C° 0 mm 2 mps 694 mmHg 76%
    20:00 +4°C° 0 mm 2 mps 695 mmHg 80%
    21:00 +2°C° 0 mm 3 mps 695 mmHg 83%
    22:00 +3°C° 0 mm 2 mps 696 mmHg 85%
    23:00 +2°C° 0 mm 2 mps 696 mmHg 87%

    Tomorrow, 27 February, Monday

    Time Temperature Precipitation Wind Pressure Humidity
    00:00 +2°C° 0 mm 2 mps 696 mmHg 88%
    01:00 +1°C° 0 mm 2 mps 696 mmHg 88%
    02:00 +1°C° 0 mm 2 mps 696 mmHg 88%
    03:00 +1°C° 0 mm 2 mps 697 mmHg 88%
    04:00 -1°C° 0 mm 2 mps 697 mmHg 88%
    05:00 +1°C° 0 mm 1 mps 697 mmHg 87%
    06:00 +1°C° 0 mm 1 mps 697 mmHg 87%
    07:00 +2°C° 0 mm 1 mps 697 mmHg 83%
    08:00 +3°C° 0 mm 1 mps 697 mmHg 79%
    09:00 +3°C° 0 mm 2 mps 697 mmHg 74%
    10:00 +4°C° 0 mm 2 mps 697 mmHg 72%
    11:00 +5°C° 0 mm 2 mps 697 mmHg 70%
    12:00 +6°C° 0 mm 2 mps 697 mmHg 68%
    13:00 +6°C° 0 mm 2 mps 696 mmHg 68%
    14:00 +7°C° 0 mm 2 mps 696 mmHg 68%
    15:00 +7°C° 0 mm 2 mps 695 mmHg 69%
    16:00 +6°C° 0 mm 1 mps 695 mmHg 75%
    17:00 +5°C° 0 mm 1 mps 695 mmHg 80%
    18:00 +3°C° 0 mm 1 mps 695 mmHg 86%
    19:00 +3°C° 0 mm 1 mps 695 mmHg 87%
    20:00 +3°C° 0 mm 1 mps 695 mmHg 88%
    21:00 +2°C° 0 mm 0 mps 695 mmHg 88%
    22:00 +2°C° 0 mm 1 mps 695 mmHg 88%
    23:00 +2°C° 0 mm 1 mps 695 mmHg 88%

    Day after tomorrow, 28 February, Tuesday

    Time Temperature Precipitation Wind Pressure Humidity
    00:00 +2°C° 0 mm 1 mps 695 mmHg 87%
    01:00 +2°C° 0 mm 1 mps 695 mmHg 86%
    02:00 +2°C° 0 mm 1 mps 694 mmHg 86%
    03:00 +2°C° 0 mm 1 mps 694 mmHg 85%
    04:00 +2°C° 0 mm 1 mps 694 mmHg 85%
    05:00 +2°C° 0 mm 1 mps 694 mmHg 84%
    06:00 +1°C° 0 mm 1 mps 694 mmHg 84%
    07:00 +4°C° 0 mm 1 mps 695 mmHg 77%
    08:00 +6°C° 0 mm 1 mps 696 mmHg 70%
    09:00 +7°C° 0 mm 0 mps 696 mmHg 64%
    10:00 +9°C° 0 mm 1 mps 696 mmHg 61%
    11:00 +10°C° 0 mm 1 mps 696 mmHg 58%
    12:00 +11°C° 0 mm 1 mps 696 mmHg 55%
    13:00 +11°C° 0 mm 1 mps 696 mmHg 56%
    14:00 +11°C° 0 mm 1 mps 696 mmHg 57%
    15:00 +12°C° 0 mm 2 mps 696 mmHg 58%
    16:00 +10°C° 0 mm 1 mps 695 mmHg 66%
    17:00 +8°C° 0 mm 1 mps 695 mmHg 74%
    18:00 +6°C° 0 mm 1 mps 695 mmHg 82%
    19:00 +5°C° 0 mm 1 mps 696 mmHg 83%
    20:00 +5°C° 0 mm 1 mps 696 mmHg 84%
    21:00 +5°C° 0 mm 1 mps 696 mmHg 86%
    22:00 +4°C° 0 mm 1 mps 696 mmHg 86%
    23:00 +4°C° 0 mm 1 mps 696 mmHg 86%

    1 March, Wednesday

    Time Temperature Precipitation Wind Pressure Humidity
    00:00 +4°C° 0 mm 1 mps 696 mmHg 86%
    01:00 +4°C° 0 mm 1 mps 696 mmHg 86%
    02:00 +3°C° 0 mm 1 mps 696 mmHg 86%
    03:00 +3°C° 0 mm 1 mps 696 mmHg 85%
    04:00 +3°C° 0 mm 1 mps 696 mmHg 84%
    05:00 +3°C° 0 mm 1 mps 696 mmHg 83%
    06:00 +3°C° 0 mm 1 mps 696 mmHg 82%
    07:00 +5°C° 0 mm 1 mps 697 mmHg 76%
    08:00 +7°C° 0 mm 1 mps 697 mmHg 70%
    09:00 +9°C° 0 mm 1 mps 698 mmHg 65%
    10:00 +10°C° 0 mm 1 mps 698 mmHg 62%
    11:00 +11°C° 0 mm 1 mps 697 mmHg 59%
    12:00 +12°C° 0 mm 2 mps 697 mmHg 57%
    13:00 +12°C° 0 mm 2 mps 697 mmHg 58%
    14:00 +12°C° 0 mm 2 mps 696 mmHg 60%
    15:00 +13°C° 0 mm 2 mps 696 mmHg 61%
    16:00 +10°C° 0 mm 2 mps 696 mmHg 69%
    17:00 +9°C° 0 mm 1 mps 695 mmHg 77%
    18:00 +7°C° 0 mm 1 mps 695 mmHg 86%
    19:00 +6°C° 0 mm 1 mps 695 mmHg 87%
    20:00 +6°C° 0 mm 1 mps 695 mmHg 89%
    21:00 +5°C° 0 mm 1 mps 695 mmHg 91%
    22:00 +5°C° 0 mm 1 mps 695 mmHg 91%
    23:00 +5°C° 0 mm 1 mps 694 mmHg 91%

    2 March, Thursday

    Time Temperature Precipitation Wind Pressure Humidity
    00:00 +4°C° 0 mm 1 mps 694 mmHg 90%
    01:00 +3°C° 0 mm 0 mps 694 mmHg 90%
    02:00 +3°C° 0 mm 0 mps 694 mmHg 90%
    03:00 +3°C° 0 mm 0 mps 693 mmHg 90%
    04:00 +2°C° 0 mm 0 mps 693 mmHg 90%
    05:00 +2°C° 0 mm 0 mps 693 mmHg 90%
    06:00 +2°C° 0 mm 0 mps 693 mmHg 90%
    07:00 +5°C° 0 mm 1 mps 693 mmHg 84%
    08:00 +7°C° 0 mm 1 mps 693 mmHg 78%
    09:00 +9°C° 0 mm 1 mps 694 mmHg 72%
    10:00 +10°C° 0 mm 1 mps 693 mmHg 69%
    11:00 +11°C° 0 mm 1 mps 693 mmHg 65%
    12:00 +12°C° 0 mm 2 mps 692 mmHg 62%
    13:00 +12°C° 0 mm 2 mps 692 mmHg 64%
    14:00 +12°C° 0 mm 2 mps 691 mmHg 65%
    15:00 +12°C° 0 mm 2 mps 691 mmHg 66%
    16:00 +10°C° 0 mm 1 mps 691 mmHg 73%
    17:00 +9°C° 0 mm 1 mps 691 mmHg 79%
    18:00 +8°C° 0 mm 1 mps 691 mmHg 86%
    19:00 +7°C° 0.1 mm 1 mps 691 mmHg 86%
    20:00 +7°C° 0.1 mm 1 mps 691 mmHg 87%
    21:00 +7°C° 0.1 mm 1 mps 691 mmHg 88%
    22:00 +6°C° 0.1 mm 1 mps 691 mmHg 89%
    23:00 +6°C° 0.1 mm 1 mps 690 mmHg 91%

    3 March, Friday

    Time Temperature Precipitation Wind Pressure Humidity
    00:00 +5°C° 0.1 mm 1 mps 690 mmHg 92%
    01:00 +5°C° 0 mm 1 mps 690 mmHg 92%
    02:00 +5°C° 0 mm 1 mps 690 mmHg 93%
    03:00 +4°C° 0 mm 1 mps 689 mmHg 93%
    04:00 +3°C° 0 mm 0 mps 689 mmHg 93%
    05:00 +3°C° 0 mm 0 mps 689 mmHg 93%
    06:00 +3°C° 0 mm 0 mps 689 mmHg 93%
    07:00 +6°C° 0 mm 1 mps 690 mmHg 86%
    08:00 +8°C° 0 mm 1 mps 690 mmHg 78%
    09:00 +9°C° 0 mm 1 mps 690 mmHg 71%
    10:00 +10°C° 0 mm 1 mps 690 mmHg 67%
    11:00 +11°C° 0 mm 1 mps 690 mmHg 64%
    12:00 +13°C° 0 mm 2 mps 690 mmHg 60%
    13:00 +13°C° 0 mm 2 mps 689 mmHg 61%
    14:00 +13°C° 0 mm 2 mps 689 mmHg 62%
    15:00 +13°C° 0 mm 2 mps 689 mmHg 62%
    16:00 +11°C° 0.1 mm 1 mps 689 mmHg 69%
    17:00 +10°C° 0.1 mm 1 mps 689 mmHg 75%
    18:00 +7°C° 0.1 mm 0 mps 689 mmHg 82%
    19:00 +7°C° 0.1 mm 0 mps 689 mmHg 83%
    20:00 +6°C° 0.1 mm 0 mps 689 mmHg 84%
    21:00 +6°C° 0.1 mm 0 mps 690 mmHg 85%
    22:00 +6°C° 0 mm 1 mps 690 mmHg 86%
    23:00 +6°C° 0 mm 1 mps 690 mmHg 86%
    Show more